Location: Tel Aviv
(32.0670°N, 34.7670°E)
Time: 15:09:57
(UTC+03:00)

ISS - Pass Details

Date: 27 May 2025
Orbit: 415 x 417 km, 51.6° (Epoch: 15 June)

Event Time Altitude Azimuth Distance (km) Brightness Sun altitude
Rises 20:11:00 0° 331° (NNW) 2,356 1.2 -6.7°
Reaches altitude 10° 20:13:49 10° 357° (N) 1,490 -0.5 -7.2°
Maximum altitude 20:15:46 15° 33° (NNE) 1,238 -1.4 -7.6°
Drops below altitude 10° 20:17:44 10° 69° (ENE) 1,485 -1.3 -7.9°
Enters shadow 20:18:55 - 83° (E) 1,810 -1.0 -8.1°
